Regional Weather Roundup
Issued by NWS

Home | Current Version | Previous Version | Text Only | Print | Product List | Glossary Off
Versions: 1 2 3 4 5 6 7 8 9 10 11 12 13 14 15 16 17 18 19 20 21 22 23 24 25 26 27 28 29 30 31 32 33 34 35 36 37 38 39 40 41 42 43 44 45 46 47 48 49 50

000
ASUS43 KDMX 011507
RWRIA

WEATHER ROUNDUP FOR IOWA
NATIONAL WEATHER SERVICE DES MOINES IA
1000 AM CDT WED JUL 01 2015

NOTE: "FAIR" INDICATES FEW OR NO CLOUDS BELOW 12,000 FEET WITH NO
SIGNIFICANT WEATHER AND/OR OBSTRUCTIONS TO VISIBILITY.

* - THESE STATIONS ARE NOT NWS STATIONS...THUS NOT UNDER NWS
QUALITY CONTROL.  THEY ALSO DO NOT REPORT WEATHER SUCH
AS PRECIPITATION OR FOG.

IAZ001>003-012>014-020>022-031>034-043>046-011600-
   NORTHWEST IOWA

CITY           SKY/WX    TMP DP  RH WIND       PRES   REMARKS
CARROLL *      LGT RAIN  64  63  94 CALM      29.95R
CHEROKEE *     PTSUNNY   68  64  88 E12       29.92R
DENISON *      PTSUNNY   66  66 100 SE10G17   29.85F FOG
LE MARS *      CLOUDY    68  64  88 NE8       29.95R
ORANGE CITY *  PTSUNNY   64  63  94 E8        29.94S
SHELDON *      PTSUNNY   64  64 100 E8G15     29.93F FOG
SIOUX CITY     PTSUNNY   70  65  84 E3        29.90R
SPENCER        CLOUDY    67  59  75 E10       29.95S
STORM LAKE *   MOSUNNY   64  61  88 E12G20    29.91S
$$

IAZ055>058-069>071-079>083-090>094-011600-
   SOUTHWEST IOWA

CITY           SKY/WX    TMP DP  RH WIND       PRES   REMARKS
ATLANTIC *     DRIZZLE   70  68  94 NE9       29.92R
AUDUBON *      LGT RAIN  66  64  94 NE6       29.94R
CLARINDA *     MOSUNNY   72  70  94 VRB5      29.89R
COUNCIL BLFS * MOSUNNY   73  68  83 E10       29.90R
CRESTON *      CLOUDY    70  66  88 SE7       29.89R
HARLAN  *      CLOUDY    68  68 100 E6        29.94F FOG
LAMONI         LGT RAIN  70  67  90 SE8       29.88F FOG
RED OAK *      PTSUNNY   73  68  83 SE8       29.89R
SHENANDOAH *   MOSUNNY   73  70  88 E9        29.89R
$$

IAZ047>049-059>061-072>074-084-011600-
   CENTRAL IOWA

CITY           SKY/WX    TMP DP  RH WIND       PRES   REMARKS
AMES           PTSUNNY   69  59  70 E7        29.94R
ANKENY *       SUNNY     70  63  78 VRB6G15   29.93R
CHARITON *     MOSUNNY   70  68  94 E9        29.89F FOG
DES MOINES     CLOUDY    70  61  73 E13       29.89F
GRINNELL*      PTSUNNY   66  59  77 E9        29.94S
KNOXVILLE *    SUNNY     70  63  78 VRB7G13   29.90F
MARSHALLTOWN   MOSUNNY   68  58  70 E14       29.94S
PELLA *        PTSUNNY   70  64  83 E5        29.93F
PERRY *          N/A     68  61  77 E12       29.91F
$$

IAZ004>006-015-016-023>025-035-036-011600-
   NORTH CENTRAL IOWA

CITY           SKY/WX    TMP DP  RH WIND       PRES   REMARKS
ALGONA *       MOSUNNY   64  57  77 E8        29.97S
CLARION *      SUNNY     66  57  72 E9        29.96R
FORT DODGE *   CLOUDY    68  57  68 E7        29.97R
MASON CITY     SUNNY     65  57  75 E8        30.00R
FOREST CITY *  SUNNY     63  55  77 E6        29.99S
IOWA FALLS *     N/A     68  57  68 E12       29.97S
$$

IAZ007>011-017>019-026>030-037>042-050>054-066-011600-
   NORTHEAST IOWA

CITY           SKY/WX    TMP DP  RH WIND       PRES   REMARKS
CEDAR RAPIDS   SUNNY     67  60  78 NE9       29.95S
CHARLES CITY * SUNNY     63  59  88 VRB7      29.99S
CLINTON *      CLOUDY    63  57  82 NE8       30.00R
DECORAH *        N/A    N/A N/A N/A MISG        N/A
DUBUQUE        PTSUNNY   64  58  80 N7        29.98S
MONTICELLO *   PTSUNNY   63 N/A N/A NE7       29.98R
OELWEIN *      MOSUNNY   63  57  82 E8        29.99S
WATERLOO       SUNNY     65  57  75 E6        29.97S
$$

IAZ064-065-067-068-078-011600-
   EAST CENTRAL IOWA

CITY           SKY/WX    TMP DP  RH WIND       PRES   REMARKS
DAVENPORT      CLOUDY    64  60  87 NE12      29.96R
IOWA CITY      SUNNY     68  58  70 NE10      29.95R
MT. PLEASANT * MOSUNNY   75  63  64 NE6       29.93S
MUSCATINE *    CLOUDY    66  63  88 NE10      29.94S HAZE
QUAD CITIES    CLOUDY    66  60  81 E8        29.95R HAZE
$$

IAZ062-063-075>077-085>089-095>099-011600-
   SOUTHEAST IOWA

CITY           SKY/WX    TMP DP  RH WIND       PRES   REMARKS
BURLINGTON     SUNNY     72  66  81 E6        29.92R
FAIRFIELD *    SUNNY     72  63  73 NE8       29.93S
FORT MADISON * MOSUNNY   72  68  88 CALM      29.93R
KEOKUK *       SUNNY     75  68  78 CALM      29.91S
OSKALOOSA *      N/A     70  63  78 E6        29.93S
CENTERVILLE *  MOSUNNY   73  68  83 NE6       29.93R
OTTUMWA        MOSUNNY   71  64  78 E8        29.91S
WASHINGTON *   SUNNY     70  63  78 E8        29.94F
$$

ABBREVIATIONS USED IN REMARKS
   TC - TEMPERATURES IN CELSIUS
  WCI - WIND CHILL INDEX
   HX - HEAT INDEX
  VSB - VISIBILITY
$$




USA.gov is the U.S. government's official web portal to all federal, state and local government web resources and services.